Overview Statistics Trail Chart Weather Telemetry Raw packets
 

This is the latest recevied weather packets stored in our database for station/object HI3LT-13. If no packets are shown the sender has not sent any weather packets the latest 10 day(s).

<< 7 8 9 10 11 12 13 >>
Time Temp. Humidity Pressure Rain* Wind** Luminosity Snow
1788493100 26.67° C 78% 1016 hPa 0 mm - - -
1788492499 26.11° C 82% 1016 hPa 0 mm - - -
1788491899 26.11° C 82% 1016 hPa 0 mm - - -
1788491315 26.67° C 78% 1016 hPa 0 mm - - -
1788490697 26.67° C 78% 1016 hPa 0 mm - - -
1788490096 26.11° C 84% 1016 hPa 0 mm - - -
1788489499 26.11° C 84% 1016 hPa 0 mm - - -
1788488895 26.11° C 84% 1016 hPa 0 mm - - -
1788488294 25.56° C 83% 1016 hPa 0 mm - - -
1788487694 24.44° C 78% 1016 hPa 0 mm - - -
1788487093 26.67° C 78% 1016 hPa 0 mm - - -
1788486492 26.67° C 78% 1016 hPa 0 mm - - -
1788485892 27.22° C 76% 1016 hPa 0 mm - - -
1788485291 27.22° C 76% 1015 hPa 0 mm - - -
1788484690 27.78° C 76% 1015 hPa 0 mm - - -
1788484090 27.78° C 74% 1015 hPa 0 mm - - -
1788483489 27.22° C 78% 1015 hPa 0 mm - - -
1788482889 26.11° C 76% 1015 hPa 0 mm - - -
1788482288 27.22° C 78% 1015 hPa 0 mm - - -
1788481687 28.33° C 73% 1014 hPa 0 mm - - -
1788481087 28.33° C 73% 1014 hPa 0 mm - - -
1788479885 28.33° C 72% 1014 hPa 0 mm - - -
1788479285 28.89° C 72% 1014 hPa 0 mm - - -
1788478684 27.78° C 74% 1014 hPa 0 mm - - -
1788478084 29.44° C 72% 1013 hPa 0 mm - - -

* Rain latest hour (hover to see other rain measurements)
** Current wind speed in m/s (hover to see current wind gust speed)